TIME,DELAY(SENSOR),PRES,OXYGEN,RAWTEMP,T(OPTODE),TCPHASE,FLUOR,BETA(BETA700),BETA(BETA412),BETA(BETA440),CDOM,C(CSC),ED(ED411.90),ED(ED443.80),ED(ED489.40),ED(ED554.70),LU(LU412.20),LU(LU443.80),LU(LU489.40),LU(LU555.00),COMP,TILTX,TILTY,CHECK
1347405618,5810,865.3599853515625000,170.7109985351562500,388.8457031250000000,10.9424400329589840,37.9942207336425800,52,104,98,79,76,13484,2146957184,2147514377,2147279917,2147500169,2147090285,2146930852,2147693723,2147121536,1850,-1,9,35973
1347409214,5807,990.0700073242188000,182.0139007568359400,470.0716857910156000,8.4551162719726560,38.5462303161621100,53,101,98,79,78,13460,2146955200,2147518345,2147290870,2147513664,2147090898,2146926592,2147711158,2147118445,623,-1,8,34221
1347412814,5804,1012.3699951171875000,190.6481018066406200,485.3218078613281000,7.9841651916503910,38.2352409362793000,52,100,98,79,78,13459,2146958582,2147514057,2147290514,2147520374,2147090569,2146928640,2147714084,2147117275,3017,-1,8,5148
1347416414,5805,1013.2899780273438000,194.2389984130859400,488.8353881835937500,7.8754549026489260,38.0660591125488300,53,103,99,78,79,13450,2146959981,2147512822,2147290413,2147519771,2147090806,2146922870,2147716160,2147118637,752,-1,8,34171
1347420014,5803,1012.7800292968750000,197.8256988525390600,493.4874877929687500,7.7313971519470215,37.9205703735351560,52,100,98,78,78,13456,2146959122,2147513472,2147292891,2147521792,2147091474,2146927451,2147718729,2147117659,2341,-1,8,59035
1347423614,5807,1017.0800170898438000,196.6967010498047000,493.8059997558594000,7.7215309143066410,37.9969291687011700,53,100,99,78,77,13457,2146958089,2147520384,2147289792,2147519424,2147090834,2146922651,2147719030,2147117357,3404,-1,8,4440
1347427214,5808,1019.7600097656250000,196.8016967773437500,493.9721069335937500,7.7163839340209960,37.9928703308105500,53,103,98,78,77,13457,2146960795,2147514843,2147293897,2147519049,2147093275,2146925942,2147714386,2147118482,298,0,8,53692
1347430814,5805,1027.7099609375000000,197.3441009521484400,493.6055908203125000,7.7277398109436035,37.9529609680175800,52,102,100,78,79,13453,2146957165,2147518153,2147290258,2147518491,2147090541,2146921645,2147717860,2147120731,146,-1,8,41941
1347434414,5809,1024.0999755859375000,199.0502929687500000,495.1516113281250000,7.6798329353332520,37.8732795715332000,52,100,99,78,77,13454,2146959698,2147513097,2147293138,2147519771,2147089481,2146918628,2147720594,2147121060,593,-1,8,40238
1347438014,5808,1031.0899658203125000,198.5115966796875000,493.9186096191406000,7.7180409431457520,37.8848686218261700,53,101,99,78,76,13454,2146958701,2147517138,2147292800,2147518656,2147092242,2146921554,2147719204,2147118765,794,-1,8,64001
1347441614,5807,1027.9599609375000000,199.2232971191406200,495.2482910156250000,7.6768369674682620,37.8639793395996100,52,99,98,78,77,13429,2146953536,2147517074,2147293659,2147521956,2147092178,2146927606,2147715593,2147115867,926,-1,8,61252
1347445214,5806,1024.3000488281250000,198.7563018798828000,496.2435913085937500,7.6459851264953610,37.9102592468261700,53,100,98,78,78,13429,2146956964,2147514422,2147291986,2147519625,2147090130,2146918253,2147719067,2147118162,3412,-1,8,37662
1347448814,5807,1026.1700439453125000,199.1631927490234400,497.2392883300781000,7.6151161193847660,37.9031410217285160,52,99,98,78,77,13426,2146955821,2147516699,2147295378,2147521170,2147090349,2146927670,2147717714,2147116973,3368,-1,8,52494
1347452414,5804,1028.5000000000000000,198.8321990966797000,496.7778930664062500,7.6294231414794920,37.9155311584472660,51,100,99,79,78,13429,2146958308,2147515565,2147294729,2147520329,2147090843,2146922752,2147716918,2147118098,3484,-1,8,451
1347456014,5808,1027.1899414062500000,198.9378051757812500,497.5549011230469000,7.6053299903869630,37.9222412109375000,52,102,97,79,77,13428,2146958281,2147515757,2147293824,2147520310,2147089691,2146926802,2147717120,2147120347,3546,-1,9,30686
1347459614,5807,1025.9899902343750000,197.6705017089843800,497.5144042968750000,7.6065859794616700,37.9999084472656250,53,102,99,78,78,13413,2146955474,2147517458,2147292096,2147517705,2147090258,2146924278,2147717467,2147117284,3516,-1,8,25774
1347463214,5809,1025.9100341796875000,200.0736999511718800,497.9845886230469000,7.5920071601867680,37.8592987060546900,53,101,98,78,78,13417,2146955392,2147517001,2147293321,2147517549,2147089142,2146924809,2147718729,2147118006,63,0,8,16888
1347466814,5806,1027.4799804687500000,200.9181976318359400,498.7316894531250000,7.5688347816467285,37.8200912475585940,52,101,99,77,79,13419,2146957229,2147516150,2147293202,2147519241,2147089837,2146923776,2147718345,2147121408,3428,-1,8,1279
1347470414,5809,1026.9499511718750000,201.6622009277343800,499.3537902832031000,7.5495409965515140,37.7854614257812500,53,101,99,77,77,13423,2146955748,2147517824,2147292534,2147516653,2147088713,2146924105,2147714907,2147117878,276,-1,8,51122
1347474014,5808,1028.9300537109375000,200.6293945312500000,498.9230957031250000,7.5629000663757320,37.8413085937500000,53,101,99,78,78,13420,2146958125,2147515529,2147291181,2147518436,2147091995,2146921005,2147719360,2147119451,150,-1,8,9863
1347477614,5802,1032.6400146484375000,199.3547973632812500,498.5657958984375000,7.5739808082580570,37.9143791198730500,53,111,103,80,78,13409,2146958208,2147514496,2147292644,2147522441,2147093833,2146920237,2147721408,2147121133,3558,-1,8,12424
1347481214,5807,1025.9300537109375000,201.0872955322265600,501.0089111328125000,7.4981908798217770,37.8491592407226560,52,102,99,78,79,13403,2146956937,2147516123,2147294262,2147520822,2147090432,2146921947,2147719808,2147121334,335,-1,8,7384
1347484814,5804,1025.6400146484375000,202.2501983642578000,501.1235046386719000,7.4946331977844240,37.7803382873535160,53,100,99,78,78,13406,2146954944,2147513865,2147292635,2147518500,2147090029,2146920009,2147724553,2147118098,3231,-1,8,59754
1347488414,5808,1025.8499755859375000,201.6145935058593800,501.4749145507812500,7.4837269783020020,37.8257408142089840,52,103,98,79,77,13408,2146956772,2147515904,2147292909,2147519680,2147091520,2146919725,2147721078,2147120411,199,-1,8,21127
1347492014,5806,1024.5300292968750000,203.2474060058593800,502.8017883300781000,7.4425420761108400,37.7493286132812500,52,102,98,78,77,13394,2146956836,2147518061,2147292800,2147521664,2147089600,2146919506,2147718902,2147118299,475,-1,8,28334
1347495614,5808,1026.9000244140625000,203.6056976318359400,502.3991088867187500,7.4550452232360840,37.7198715209960940,52,100,98,78,77,13408,2146959076,2147517714,2147295268,2147519616,2147089883,2146917010,2147722569,2147120576,388,-1,8,13665
1347499214,5809,1031.0999755859375000,202.1157073974609400,501.7048034667969000,7.4765949249267580,37.7990684509277340,53,100,100,79,78,13409,2146959405,2147518829,2147293568,2147521152,2147092992,2146916608,2147719680,2147117394,42,-1,8,24269
1347502814,5809,1033.5600585937500000,200.2290039062500000,499.6646118164062500,7.5398998260498050,37.8792495727539060,53,101,99,78,78,13408,2146955958,2147513965,2147292361,2147519716,2147092269,2146925056,2147717897,2147117604,82,0,8,14745
1347506414,5806,1037.7900390625000000,200.5149993896484400,499.4927978515625000,7.5452270507812500,37.8587188720703100,52,103,99,80,77,13394,2146959744,2147515657,2147290898,2147520228,2147094098,2146924416,2147721216,2147119040,372,-1,8,47319
1347510014,5806,1024.4399414062500000,197.9020996093750000,495.3103942871094000,7.6749110221862790,37.9468688964843750,52,102,99,78,78,13404,2146957531,2147515721,2147293138,2147517083,2147089682,2146920137,2147716489,2147119003,3289,-1,8,9533
1347513614,5808,1027.0300292968750000,197.2655029296875000,494.4374084472656000,7.7019658088684080,37.9727783203125000,53,103,99,78,78,13404,2146955190,2147516315,2147290057,2147518235,2147088704,2146922313,2147722276,2147119881,184,-1,8,14368
1347517214,5805,1018.3900146484375000,196.5630950927734400,496.0049133300781000,7.6533861160278320,38.0440101623535160,52,101,98,79,78,13403,2146958665,2147518299,2147292763,2147520722,2147089152,2146919533,2147714011,2147117659,2873,-1,8,47195
1347520814,5807,1022.8300170898438000,197.9541931152343800,496.2504882812500000,7.6457710266113280,37.9607505798339840,52,100,99,78,78,13402,2146959213,2147513444,2147294573,2147521234,2147092397,2146921307,2147715318,2147119241,3541,-1,8,22998
1347524414,5806,1020.5300292968750000,199.2135009765625000,496.8671875000000000,7.6266508102416990,37.8928489685058600,54,101,98,78,77,13401,2146956918,2147517312,2147295195,2147519241,2147091273,2146926317,2147715666,2147118363,3315,-1,8,10596
1347528014,5807,1020.9799804687500000,199.2019958496093800,497.6217041015625000,7.6032600402832030,37.9067993164062500,51,101,99,78,78,13392,2146958262,2147515593,2147296630,2147519853,2147091712,2146919021,2147717193,2147117814,3494,-1,8,59820
1347531614,5807,1019.4299926757812000,198.2601928710937500,498.3091125488281000,7.5819430351257320,37.9769210815429700,52,102,99,79,78,13394,2146957028,2147518070,2147294390,2147520338,2147090377,2146922304,2147719762,2147120365,3369,0,8,52713
1347535214,5809,1020.0499877929688000,199.4241027832031200,498.0140075683594000,7.5910949707031250,37.9003601074218750,52,101,97,79,78,13398,2146959067,2147518491,2147294308,2147517504,2147091236,2146923373,2147719296,2147120850,237,-1,8,8608
1347538814,5805,1022.7399902343750000,197.8144989013672000,498.0609130859375000,7.5896401405334470,38.0013198852539060,53,100,98,79,78,13399,2146956717,2147518043,2147293065,2147522752,2147091602,2146920740,2147719186,2147118619,3565,-1,8,9030
1347542414,5809,1024.7700195312500000,199.0970001220703000,496.9193115234375000,7.6250391006469730,37.9015388488769500,52,100,100,79,77,13395,2146957257,2147517686,2147294409,2147517833,2147091629,2146919442,2147720585,2147118683,14,-1,8,7974
1347543356,5805,1022.0499877929688000,199.2077941894531200,496.9494934082031000,7.6241030693054200,37.8948707580566400,53,104,98,79,77,13404,2146957613,2147514450,2147294226,2147519963,2147087844,2146924955,2147718080,2147118948,3293,-1,8,11877
